Location: Unspecified
(51.5147°N, 7.4673°E)
Time: 06:48:41
(UTC+01:00)

A-11 Canister half - Pass Details

Date: 20 February 2026
Orbit: 1524 x 1683 km, 47.3° (Epoch: 14 March)

Event Time Altitude Azimuth Distance (km) Brightness Sun altitude
Rises 23:55:47 0° 286° (WNW) 4,679 11.8 -48.3°
Reaches altitude 10° 00:00:00 10° 269° (W) 3,701 11.1 -48.5°
Enters shadow 00:00:07 10° 268° (W) 3,681 11.1 -48.5°
